Weather History for KLVS - March, 2013

Change the Weather History Date:

Friday, March 29, 2013

  Actual Average Record
Temperature  
Mean Temperature 50 °F -  
Max Temperature 66 °F 53 °F - (-1)
Min Temperature 36 °F 26 °F - (-1)
Degree Days  
Heating Degree Days 15    
Moisture  
Dew Point 13 °F    
Average Humidity 23    
Maximum Humidity 42    
Minimum Humidity 11    
Precipitation  
Precipitation 0.00 in - - ()
Sea Level Pressure  
Sea Level Pressure 29.99 in    
Wind  
Wind Speed 7 mph (North)    
Max Wind Speed 18 mph    
Max Gust Speed 28 mph    
Visibility 10 miles    
Events      
Averages and records for this station are not official NWS values.
T = Trace of Precipitation, MM = Missing Value Source: NWS Daily Summary

Daily Weather History Graph

Daily Weather History Graph

Search for Another Location

Airport or City:

Trip Planner

Search our weather history database for the weather conditions in past years. The results will help you decide how hot, cold, wet, or windy it might be!

Date:

Astronomy

Mar. 29, 2013 Rise Set
Actual Time 6:50 AM MDT 7:20 PM MDT
Civil Twilight 6:25 AM MDT 7:45 PM MDT
Nautical Twilight 5:55 AM MDT 8:15 PM MDT
Astronomical Twilight 5:24 AM MDT 8:46 PM MDT
Moon 10:15 PM MDT (3/29) 8:07 AM MDT (3/29)
Length of Visible Light 13h 20m
Length of Day
12h 29m
Waning Gibbous, 93% of the Moon is Illuminated
Mar 29
Waning Gibbous
Apr 2
Last Quarter
Apr 10
New
Apr 18
First Quarter
Apr 25
Full

Hourly Weather History & Observations

Time (MDT) Temp. Windchill Dew Point Humidity Pressure Visibility Wind Dir Wind Speed Gust Speed Precip Events Conditions
12:53 AM 45.0 °F 42.6 °F 10.9 °F 25% 29.95 in 10.0 mi NNE 4.6 mph - N/A   Clear
1:53 AM 45.0 °F 41.8 °F 10.9 °F 25% 29.95 in 10.0 mi NNE 5.8 mph - N/A   Clear
2:53 AM 45.0 °F 41.8 °F 10.9 °F 25% 29.95 in 10.0 mi NNE 5.8 mph - N/A   Mostly Cloudy
3:53 AM 41.0 °F 36.4 °F 10.0 °F 28% 29.97 in 10.0 mi ENE 6.9 mph - N/A   Clear
4:53 AM 37.0 °F 31.0 °F 7.0 °F 29% 29.99 in 10.0 mi ENE 8.1 mph - N/A   Clear
5:53 AM 36.0 °F 30.3 °F 7.0 °F 30% 30.01 in 10.0 mi NE 6.9 mph - N/A   Clear
6:53 AM 39.9 °F 34.5 °F 10.9 °F 31% 30.00 in 10.0 mi NNE 8.1 mph - N/A   Clear
7:53 AM 39.9 °F 35.1 °F 12.0 °F 32% 30.06 in 10.0 mi NNE 6.9 mph - N/A   Clear
8:53 AM 50.0 °F - 16.0 °F 26% 30.03 in 10.0 mi NNW 4.6 mph - N/A   Clear
9:53 AM 52.0 °F - 15.1 °F 23% 30.03 in 10.0 mi Calm Calm - N/A   Clear
10:53 AM 57.0 °F - 16.0 °F 20% 30.03 in 10.0 mi Calm Calm - N/A   Clear
11:53 AM 62.1 °F - 16.0 °F 17% 29.98 in 10.0 mi Variable 6.9 mph - N/A   Clear
12:53 PM 64.9 °F - 12.0 °F 13% 29.95 in 10.0 mi SW 11.5 mph 24.2 mph N/A   Partly Cloudy
1:53 PM 63.0 °F - 12.0 °F 14% 29.93 in 10.0 mi South 9.2 mph - N/A   Overcast
2:32 PM 62.6 °F - 14.0 °F 15% 30.15 in 10.0 mi NNE 10.4 mph 26.5 mph N/A   Mostly Cloudy
2:53 PM 64.9 °F - 14.0 °F 14% 29.92 in 10.0 mi WNW 15.0 mph 19.6 mph N/A   Mostly Cloudy
3:53 PM 63.0 °F - 10.0 °F 13% 29.93 in 10.0 mi NNW 15.0 mph 21.9 mph N/A   Clear
4:53 PM 63.0 °F - 8.1 °F 11% 29.94 in 10.0 mi North 4.6 mph - N/A   Overcast
5:53 PM 64.0 °F - 12.9 °F 14% 29.93 in 10.0 mi West 18.4 mph 27.6 mph N/A   Clear
6:01 PM 64.4 °F - 12.2 °F 13% 30.12 in 10.0 mi WNW 15.0 mph 27.6 mph N/A   Clear
6:53 PM 61.0 °F - 14.0 °F 16% 29.94 in 10.0 mi WNW 18.4 mph - N/A   Partly Cloudy
7:53 PM 52.0 °F - 14.0 °F 22% 30.02 in 10.0 mi NNW 15.0 mph 21.9 mph N/A   Partly Cloudy
8:53 PM 51.1 °F - 19.9 °F 29% 30.00 in 10.0 mi NNE 8.1 mph - N/A   Clear
9:53 PM 46.9 °F - 23.0 °F 39% 30.01 in 10.0 mi NE 8.1 mph - N/A   Clear
10:53 PM 43.0 °F 40.3 °F 21.0 °F 42% 30.02 in 10.0 mi ENE 4.6 mph - N/A   Clear
11:53 PM 46.0 °F 43.9 °F 21.0 °F 37% 29.99 in 10.0 mi West 4.6 mph - N/A   Clear